Hourly Weather Otradovka

Today, 24 July, Saturday

Time Temperature Precipitation Wind Pressure Humidity
00:00 +21°C° 0 mm 4 mps 754 mmHg 54%
01:00 +21°C° 0 mm 3 mps 754 mmHg 55%
02:00 +20°C° 0 mm 3 mps 755 mmHg 55%
03:00 +20°C° 0 mm 3 mps 755 mmHg 56%
04:00 +20°C° 0 mm 3 mps 755 mmHg 56%
05:00 +20°C° 0 mm 3 mps 755 mmHg 56%
06:00 +20°C° 0 mm 2 mps 755 mmHg 56%
07:00 +22°C° 0 mm 3 mps 755 mmHg 50%
08:00 +25°C° 0 mm 3 mps 755 mmHg 44%
09:00 +26°C° 0 mm 3 mps 756 mmHg 42%
10:00 +28°C° 0 mm 3 mps 756 mmHg 39%
11:00 +29°C° 0 mm 3 mps 756 mmHg 36%
12:00 +30°C° 0 mm 3 mps 756 mmHg 33%
13:00 +30°C° 0 mm 3 mps 756 mmHg 31%
14:00 +30°C° 0 mm 3 mps 756 mmHg 30%
15:00 +31°C° 0 mm 3 mps 755 mmHg 29%
16:00 +30°C° 0 mm 3 mps 756 mmHg 30%
17:00 +30°C° 0 mm 3 mps 756 mmHg 31%
18:00 +30°C° 0 mm 3 mps 756 mmHg 32%
19:00 +28°C° 0 mm 3 mps 756 mmHg 36%
20:00 +26°C° 0 mm 3 mps 757 mmHg 41%
21:00 +24°C° 0 mm 3 mps 757 mmHg 46%
22:00 +24°C° 0 mm 3 mps 757 mmHg 47%
23:00 +24°C° 0 mm 3 mps 757 mmHg 47%

Tomorrow, 25 July, Sunday

Time Temperature Precipitation Wind Pressure Humidity
00:00 +22°C° 0 mm 3 mps 757 mmHg 48%
01:00 +22°C° 0 mm 3 mps 757 mmHg 49%
02:00 +22°C° 0 mm 3 mps 757 mmHg 49%
03:00 +21°C° 0 mm 3 mps 757 mmHg 49%
04:00 +21°C° 0 mm 3 mps 758 mmHg 50%
05:00 +21°C° 0 mm 3 mps 758 mmHg 51%
06:00 +21°C° 0 mm 3 mps 758 mmHg 51%
07:00 +23°C° 0 mm 4 mps 758 mmHg 47%
08:00 +26°C° 0 mm 5 mps 758 mmHg 42%
09:00 +29°C° 0 mm 5 mps 759 mmHg 38%
10:00 +30°C° 0 mm 5 mps 759 mmHg 35%
11:00 +32°C° 0 mm 5 mps 759 mmHg 32%
12:00 +33°C° 0 mm 5 mps 759 mmHg 29%
13:00 +34°C° 0 mm 5 mps 759 mmHg 28%
14:00 +34°C° 0 mm 5 mps 759 mmHg 27%
15:00 +34°C° 0 mm 5 mps 758 mmHg 26%
16:00 +34°C° 0 mm 5 mps 758 mmHg 27%
17:00 +34°C° 0 mm 4 mps 758 mmHg 29%
18:00 +33°C° 0 mm 4 mps 758 mmHg 30%
19:00 +32°C° 0 mm 4 mps 759 mmHg 34%
20:00 +29°C° 0 mm 3 mps 759 mmHg 38%
21:00 +27°C° 0 mm 3 mps 759 mmHg 43%
22:00 +27°C° 0 mm 3 mps 759 mmHg 43%
23:00 +26°C° 0 mm 4 mps 759 mmHg 44%

Day after tomorrow, 26 July, Monday

Time Temperature Precipitation Wind Pressure Humidity
00:00 +26°C° 0 mm 4 mps 759 mmHg 44%
01:00 +26°C° 0 mm 5 mps 759 mmHg 44%
02:00 +25°C° 0 mm 5 mps 759 mmHg 44%
03:00 +25°C° 0 mm 5 mps 759 mmHg 44%
04:00 +25°C° 0.1 mm 5 mps 759 mmHg 44%
05:00 +23°C° 0.1 mm 5 mps 760 mmHg 45%
06:00 +23°C° 0.1 mm 5 mps 760 mmHg 46%
07:00 +25°C° 0 mm 5 mps 760 mmHg 45%
08:00 +26°C° 0 mm 5 mps 760 mmHg 44%
09:00 +27°C° 0 mm 5 mps 759 mmHg 43%
10:00 +29°C° 0 mm 5 mps 759 mmHg 39%
11:00 +32°C° 0 mm 5 mps 759 mmHg 35%
12:00 +34°C° 0 mm 6 mps 759 mmHg 31%
13:00 +35°C° 0 mm 6 mps 759 mmHg 30%
14:00 +35°C° 0 mm 6 mps 759 mmHg 29%
15:00 +36°C° 0 mm 6 mps 758 mmHg 28%
16:00 +35°C° 0 mm 6 mps 758 mmHg 30%
17:00 +34°C° 0 mm 6 mps 758 mmHg 32%
18:00 +34°C° 0 mm 6 mps 758 mmHg 34%
19:00 +32°C° 0 mm 6 mps 758 mmHg 37%
20:00 +30°C° 0 mm 6 mps 758 mmHg 41%
21:00 +28°C° 0 mm 5 mps 759 mmHg 45%
22:00 +28°C° 0 mm 6 mps 759 mmHg 45%
23:00 +27°C° 0 mm 6 mps 759 mmHg 46%

27 July, Tuesday

Time Temperature Precipitation Wind Pressure Humidity
00:00 +27°C° 0 mm 6 mps 759 mmHg 46%
01:00 +26°C° 0 mm 6 mps 759 mmHg 48%
02:00 +26°C° 0 mm 6 mps 759 mmHg 49%
03:00 +25°C° 0 mm 5 mps 759 mmHg 51%
04:00 +25°C° 0 mm 5 mps 759 mmHg 51%
05:00 +25°C° 0 mm 5 mps 759 mmHg 51%
06:00 +23°C° 0 mm 4 mps 759 mmHg 52%
07:00 +26°C° 0 mm 5 mps 759 mmHg 46%
08:00 +28°C° 0 mm 5 mps 759 mmHg 40%
09:00 +30°C° 0 mm 5 mps 759 mmHg 35%
10:00 +32°C° 0 mm 5 mps 759 mmHg 32%
11:00 +33°C° 0 mm 6 mps 759 mmHg 29%
12:00 +34°C° 0 mm 6 mps 759 mmHg 26%
13:00 +34°C° 0 mm 6 mps 759 mmHg 26%
14:00 +34°C° 0 mm 6 mps 759 mmHg 26%
15:00 +34°C° 0 mm 6 mps 759 mmHg 27%
16:00 +33°C° 0 mm 6 mps 759 mmHg 28%
17:00 +33°C° 0 mm 6 mps 759 mmHg 30%
18:00 +33°C° 0 mm 5 mps 759 mmHg 31%
19:00 +30°C° 0 mm 5 mps 759 mmHg 33%
20:00 +29°C° 0 mm 4 mps 760 mmHg 35%
21:00 +28°C° 0 mm 4 mps 760 mmHg 37%
22:00 +27°C° 0 mm 3 mps 760 mmHg 39%
23:00 +26°C° 0 mm 3 mps 760 mmHg 40%

28 July, Wednesday

Time Temperature Precipitation Wind Pressure Humidity
00:00 +25°C° 0 mm 2 mps 760 mmHg 42%
01:00 +24°C° 0 mm 2 mps 760 mmHg 46%
02:00 +23°C° 0 mm 1 mps 760 mmHg 49%
03:00 +22°C° 0 mm 1 mps 760 mmHg 52%
04:00 +22°C° 0 mm 1 mps 760 mmHg 53%
05:00 +23°C° 0 mm 1 mps 760 mmHg 53%
06:00 +23°C° 0 mm 1 mps 760 mmHg 54%
07:00 +25°C° 0 mm 1 mps 760 mmHg 48%
08:00 +27°C° 0 mm 1 mps 760 mmHg 43%
09:00 +27°C° 0 mm 0 mps 760 mmHg 37%
10:00 +30°C° 0 mm 1 mps 760 mmHg 34%
11:00 +32°C° 0 mm 2 mps 760 mmHg 31%
12:00 +34°C° 0 mm 3 mps 760 mmHg 28%
13:00 +34°C° 0 mm 3 mps 759 mmHg 27%
14:00 +35°C° 0 mm 3 mps 759 mmHg 26%
15:00 +35°C° 0 mm 4 mps 758 mmHg 25%
16:00 +35°C° 0 mm 4 mps 758 mmHg 26%
17:00 +35°C° 0 mm 4 mps 758 mmHg 26%
18:00 +34°C° 0 mm 4 mps 758 mmHg 27%
19:00 +32°C° 0 mm 4 mps 758 mmHg 31%
20:00 +29°C° 0 mm 3 mps 758 mmHg 36%
21:00 +27°C° 0 mm 2 mps 758 mmHg 41%
22:00 +26°C° 0 mm 2 mps 758 mmHg 40%
23:00 +25°C° 0 mm 2 mps 758 mmHg 39%

29 July, Thursday

Time Temperature Precipitation Wind Pressure Humidity
00:00 +25°C° 0 mm 2 mps 758 mmHg 38%
01:00 +24°C° 0 mm 2 mps 758 mmHg 37%
02:00 +24°C° 0 mm 2 mps 758 mmHg 36%
03:00 +24°C° 0 mm 1 mps 758 mmHg 36%
04:00 +24°C° 0 mm 1 mps 758 mmHg 37%
05:00 +24°C° 0 mm 1 mps 758 mmHg 38%
06:00 +23°C° 0 mm 2 mps 758 mmHg 39%
07:00 +26°C° 0 mm 2 mps 758 mmHg 35%
08:00 +28°C° 0 mm 2 mps 758 mmHg 30%
09:00 +31°C° 0 mm 2 mps 758 mmHg 26%
10:00 +32°C° 0 mm 2 mps 757 mmHg 24%
11:00 +34°C° 0 mm 2 mps 757 mmHg 21%
12:00 +35°C° 0 mm 2 mps 757 mmHg 19%
13:00 +36°C° 0 mm 2 mps 756 mmHg 18%
14:00 +36°C° 0 mm 2 mps 756 mmHg 18%
15:00 +37°C° 0 mm 2 mps 756 mmHg 17%
16:00 +36°C° 0 mm 3 mps 755 mmHg 19%
17:00 +36°C° 0 mm 3 mps 755 mmHg 21%
18:00 +35°C° 0 mm 4 mps 755 mmHg 23%
19:00 +31°C° 0 mm 3 mps 755 mmHg 28%
20:00 +29°C° 0 mm 3 mps 755 mmHg 34%
21:00 +27°C° 0 mm 2 mps 755 mmHg 39%
22:00 +27°C° 0 mm 2 mps 755 mmHg 38%
23:00 +26°C° 0 mm 2 mps 755 mmHg 38%
Show more